Terminal Aerodrome Forecast
Issued by NWS Wilmington, NC

Home | Current Version | Previous Version | Text Only | Print | Product List | Glossary On
Versions: 1 2 3 4 5 6 7 8 9 10 11 12 13 14 15 16 17 18 19 20 21 22
981
FTUS42 KILM 231228 AAA
TAFLBT
TAF AMD
KLBT 231228Z 2312/2412 20004KT P6SM SCT007
      TEMPO 2312/2313 5SM BR BKN007
     FM231400 21007KT P6SM SCT040
     FM232100 20008KT P6SM VCTS BKN050CB
     FM240200 21006KT 5SM -SHRA VCTS BKN040CB=

USA.gov is the U.S. government's official web portal to all federal, state and local government web resources and services.